Date,TemperatureHighF,TemperatureAvgF,TemperatureLowF,DewpointHighF,DewpointAvgF,DewpointLowF,HumidityHigh,HumidityAvg,HumidityLow,PressureMaxIn,PressureMinIn,WindSpeedMaxMPH,WindSpeedAvgMPH,GustSpeedMaxMPH,PrecipitationSumIn
2013-1-4,25,25,25,20,20,20,80,80,80,30.34,30.34,7,6,17,0.00
2013-1-7,26,26,26,22,22,22,84,84,84,30.44,30.44,0,0,3,0.00
2013-1-9,53,53,53,43,43,43,69,69,69,30.36,30.36,1,1,7,0.00
2013-1-10,41,40,39,40,39,38,96,96,96,30.54,30.52,7,1,9,0.01
2013-1-15,32,32,32,31,31,31,95,95,95,30.20,30.20,7,7,9,0.00
2013-1-30,56,50,44,54,48,42,97,94,88,29.55,29.41,28,8,31,1.84
2013-1-31,40,29,25,38,25,19,96,86,74,29.99,29.50,19,7,33,0.08
2013-2-1,27,15,8,26,10,1,94,82,59,30.40,29.86,23,5,43,0.00
2013-2-2,27,26,26,26,25,24,94,94,93,30.06,30.04,6,3,11,0.02
2013-2-3,27,24,20,26,22,16,94,92,84,30.16,29.93,13,5,23,0.00
2013-2-4,20,19,18,16,15,14,92,85,78,30.16,30.12,10,3,19,0.00
2013-2-6,44,35,32,30,29,28,89,78,54,30.26,30.17,10,5,11,0.00
2013-2-7,50,41,34,36,31,26,82,68,54,30.25,29.98,12,4,20,0.00
2013-2-8,42,40,34,41,36,30,96,86,78,30.04,29.88,17,6,26,0.14
2013-2-11,60,56,54,48,47,45,79,70,59,29.90,29.88,10,5,25,0.04
2013-2-12,51,44,40,24,20,19,50,39,31,30.04,29.92,10,2,16,0.00
2013-2-13,43,36,30,35,26,20,95,70,41,29.96,29.71,10,3,17,0.22
2013-2-14,48,33,28,35,29,26,95,86,52,30.04,29.94,8,3,17,0.10
2013-2-15,33,31,28,32,30,26,95,95,94,30.11,30.05,8,3,13,0.07
2013-2-16,28,24,18,26,21,14,94,87,66,30.10,29.99,9,2,13,0.03
2013-2-17,25,17,12,14,7,4,93,64,46,30.28,30.06,19,6,22,0.00
2013-2-18,24,19,16,10,6,3,62,56,52,30.29,30.27,9,2,10,0.00
2013-2-19,43,34,28,28,18,15,60,52,44,30.06,29.85,13,6,28,0.19
2013-2-20,32,24,19,16,12,11,75,62,46,30.26,30.06,17,6,32,0.01
2013-2-21,34,20,12,16,12,9,91,72,44,30.36,30.21,10,4,13,0.00
2013-2-22,57,51,45,43,41,39,84,71,57,30.01,29.93,12,4,17,0.15
2013-2-23,55,47,38,44,39,29,89,75,51,29.98,29.85,10,5,14,0.00
2013-2-24,46,35,26,30,25,20,94,70,39,30.17,29.92,13,4,20,0.00
2013-2-25,34,25,22,23,20,19,93,81,63,30.19,30.13,9,5,12,0.00
2013-2-26,44,42,40,41,40,38,96,89,82,29.64,29.54,11,5,25,0.55
2013-2-27,42,37,30,39,33,29,96,87,69,29.82,29.63,9,3,20,0.10
2013-2-28,30,29,27,29,27,26,95,94,94,29.93,29.76,12,5,18,0.00
2013-3-1,31,29,26,30,27,24,95,94,94,30.00,29.90,12,4,13,0.02
2013-3-2,26,24,21,24,21,18,94,90,79,30.05,29.96,14,6,16,0.00
2013-3-3,25,21,20,20,18,16,93,89,77,30.09,30.01,10,5,21,0.00
2013-3-4,22,21,19,19,15,11,92,80,68,30.16,30.09,10,4,15,0.00
2013-3-6,29,29,28,28,27,26,94,94,94,30.21,30.09,13,3,13,0.02
2013-3-7,32,29,27,31,27,26,95,94,94,30.34,30.20,9,4,16,0.01
2013-3-8,44,34,27,28,26,23,94,75,47,30.42,30.31,13,6,16,0.04
2013-3-9,65,47,29,30,26,23,81,48,22,30.38,30.14,12,4,17,0.00
2013-3-10,71,58,49,35,30,27,44,35,24,30.16,29.99,13,5,20,0.00
2013-3-11,55,54,54,33,32,30,45,42,39,30.01,29.90,13,6,23,0.00
2013-3-13,34,27,22,28,23,18,94,84,63,30.27,30.07,20,7,37,0.02
2013-3-14,23,22,21,21,19,16,93,89,81,30.32,30.26,12,6,20,0.00
2013-3-15,57,54,50,35,33,32,54,47,39,29.90,29.87,9,4,18,0.00
2013-3-16,71,56,43,52,43,34,96,66,41,29.96,29.64,15,5,28,0.28
2013-3-17,46,38,34,41,36,33,96,94,84,30.12,29.96,15,6,23,0.25
2013-3-18,50,43,38,46,40,34,96,89,78,30.00,29.71,20,7,31,0.26
2013-3-19,50,42,35,48,22,5,97,53,20,30.08,29.76,18,6,37,0.25
2013-3-20,45,35,28,28,16,7,94,49,29,30.11,29.82,22,5,29,0.00
2013-3-21,28,21,17,20,15,7,92,77,61,30.05,29.94,13,6,23,0.01
2013-3-22,43,29,15,17,12,8,74,52,30,30.07,29.98,9,3,14,0.00
2013-3-23,54,39,30,22,17,12,65,41,25,30.06,29.92,11,4,14,0.00
2013-3-24,42,39,35,35,28,18,95,68,41,29.91,29.46,19,7,31,0.39
2013-3-25,36,34,31,35,32,29,95,95,92,29.55,29.49,10,5,22,0.08
2013-4-1,47,40,35,39,31,21,95,71,56,30.08,29.94,13,7,23,0.03
2013-4-2,46,36,26,21,16,11,72,44,27,30.25,30.08,13,5,19,0.00
2013-4-3,49,38,26,19,14,9,66,39,22,30.36,30.21,13,5,18,0.00
2013-4-4,49,39,32,38,22,11,96,54,27,30.32,30.01,14,5,19,0.18
2013-4-5,59,50,38,41,31,25,96,53,27,30.09,29.95,15,6,25,0.08
2013-4-6,71,52,35,34,26,18,68,41,18,30.24,30.01,9,4,15,0.00
2013-4-7,73,61,52,40,36,32,48,39,29,30.06,29.94,15,5,21,0.00
2013-4-8,62,61,60,41,38,35,49,43,38,30.02,30.00,10,5,14,0.00
2013-4-11,84,77,71,51,45,38,50,34,23,29.84,29.59,17,5,23,0.00
2013-4-12,70,62,58,58,56,52,98,85,52,29.69,29.62,10,4,21,0.47
2013-5-3,53,53,53,42,42,42,66,66,66,30.17,30.17,5,5,8,0.00
2013-5-7,51,51,51,50,50,50,97,97,97,29.97,29.97,2,2,7,0.00
2013-5-22,70,70,70,54,54,54,58,58,58,29.90,29.90,9,9,9,0.00